Location: Bacharowice
(49.9333°N, 19.5833°E)
Time: 22:17:22
(UTC+00:00)

Cosmos 2151 Rocket - Pass Details

Date: 11 May 2021
Orbit: 616 x 643 km, 82.5° (Epoch: 21 June)

Event Time Altitude Azimuth Distance (km) Brightness Sun altitude
Rises 23:17:15 0° 350° (N) 2,964 8.3 -21.4°
Reaches altitude 10° 23:19:31 10° 350° (N) 2,047 7.2 -21.3°
Maximum altitude 23:24:04 88° 76° (ENE) 647 3.5 -21.2°
Enters shadow 23:25:03 55° 167° (SSE) 767 3.6 -21.1°
